KSAN Airport Information

Runway Information
Runway 09 Length 9401 ft width 200 ft
Elevation 14 ft Threshold 700 ft Heading 106
Runway 27 Length 9401 ft Width 200 ft
Elevation 13 ft Threshold 1810 ft Heading 286
Airport Frequencies
Type A/D Name SOCAL APP/ Frequency 119.6 MHZ
Type ATIS Name ATIS Frequency 134.8 MHZ
Type CLD Name CLNC DEL Frequency 125.9 MHZ
Type GND Name GND Frequency 123.9 MHZ
Type MISC Name CG Frequency 157.15 MHZ
Type MISC Name CG Frequency 898.4 MHZ
Type TWR Name LINDBERGH Frequency 118.3 MHZ
Type UNIC Name UNICOM Frequency 122.95 MHZ
Airport Navaids
Type NDB Name Boing Frequency 245 KHZ
Airport Weather Information & NOTAM
ADDS - METARS form results

(0326 UTC 19 August 2018)
 
METAR text: KSAN 190251Z 31007KT 10SM FEW018 SCT250 24/19 A2997 RMK AO2 SLP150 T02440194 55003
Conditions at: KSAN (SAN DIEGO , CA, US) observed 0251 UTC 19 August 2018
Temperature: 24.4°C (76°F)
Dewpoint: 19.4°C (67°F) [RH = 74%]
Pressure (altimeter): 29.97 inches Hg (1015.0 mb)
[Sea-level pressure: 1015.0 mb]
Winds: from the NW (310 degrees) at 8 MPH (7 knots; 3.6 m/s)
Visibility: 10 or more miles (16+ km)
Ceiling: at least 12,000 feet AGL
Clouds: few clouds at 1800 feet AGL
scattered clouds at 25000 feet AGL
Weather: no significant weather observed at this time